Dewpoint
64 69 71 70 70 71 71 72 72 72 72 72 72 72 72 72 71 71 71 71 71 70 71 70 69 69 68 68 68 67 66 65 65 64 66 66 66 65 66 66 67 63 65
66 69 71 71 71 71 72 71 72 72 72 72 72 71 71 72 71 71 71 71 71 71 70 69 69 68 68 66 66 65 65 64 65 65 64 65 66 67 66 66 66 62 64
68 68 69 71 71 72 72 72 71 70 70 70 72 71 71 71 71 71 71 70 70 70 68 68 67 66 66 66 65 65 64 64 64 65 64 62 64 65 64 65 65 64 64
68 69 69 72 72 72 72 71 70 70 70 69 71 71 71 71 71 70 70 70 70 70 69 68 66 66 66 65 64 64 64 64 63 63 60 60 58 64 64 62 63 63 62
68 69 69 71 72 71 70 70 70 71 71 70 70 70 70 70 70 70 70 70 70 70 69 67 66 65 65 64 64 64 64 64 63 60 58 59 61 62 63 62 62 61 62
68 69 70 71 71 70 69 69 70 69 69 70 69 69 70 70 69 69 69 70 69 69 67 66 66 65 64 64 64 64 64 63 62 59 58 62 59 63 63 63 63 63 63
68 69 70 71 70 70 70 69 69 70 69 70 70 70 70 69 69 68 68 69 69 68 67 66 65 64 64 64 64 64 63 62 58 57 57 59 61 63 63 63 63 62 62
68 69 68 69 69 69 69 69 69 68 68 69 70 70 70 69 68 67 68 69 69 68 66 65 64 64 63 63 63 63 62 62 58 57 57 56 62 63 63 61 61 62 61
67 67 66 67 67 67 68 68 69 69 69 70 70 69 69 68 68 67 68 68 68 67 66 64 64 63 63 63 63 63 62 62 57 57 56 58 64 61 62 62 61 60 60
66 66 66 66 66 65 66 68 67 68 69 69 68 68 67 67 67 67 67 67 68 67 66 64 63 63 63 63 63 62 62 61 57 57 57 61 62 62 62 60 60 59 59
65 65 66 66 66 65 67 67 67 67 66 66 66 65 65 65 65 65 65 65 65 67 66 64 63 63 63 63 62 61 60 57 56 57 59 63 62 61 60 59 59 59 59
63 64 65 65 65 65 65 65 65 64 65 65 65 65 65 64 64 63 62 63 64 66 65 64 63 61 59 58 58 59 58 57 56 58 60 62 60 60 59 59 58 58 58
62 64 64 64 64 64 64 64 64 63 63 63 64 64 64 63 63 61 58 55 57 59 62 59 57 57 58 58 58 58 58 58 59 59 59 61 59 59 59 58 58 57 57
62 63 63 63 63 63 63 63 62 62 62 62 62 62 62 60 59 57 55 54 52 54 55 55 55 56 57 57 57 57 57 56 55 56 57 60 59 58 58 58 57 57 56
62 62 62 62 61 61 61 62 61 61 60 60 60 59 59 58 57 55 55 54 50 48 51 52 54 55 55 56 56 56 55 54 54 55 55 59 59 58 57 57 56 56 56
61 61 62 61 61 61 61 61 61 60 59 59 58 57 56 56 56 56 55 53 50 47 46 50 53 53 53 54 56 55 54 52 52 52 52 54 59 58 55 55 55 55 54
61 61 61 60 60 60 60 61 61 60 59 58 58 57 56 56 56 55 54 52 50 48 47 50 51 51 52 53 55 54 50 48 49 48 49 49 51 56 54 53 52 52 52
60 60 60 59 59 59 60 60 60 59 59 58 57 57 57 57 56 54 53 51 50 49 48 50 50 49 50 52 53 52 46 45 46 46 46 46 46 47 50 50 49 49 49
59 59 59 59 59 59 59 59 59 59 59 58 57 58 57 57 55 53 52 51 50 49 48 48 48 48 47 49 50 49 47 45 44 43 44 44 44 45 45 48 46 46 47
59 58 59 59 59 59 59 59 58 58 58 57 57 58 56 56 55 54 54 52 51 50 50 48 46 46 46 47 46 46 47 47 46 42 43 42 40 36 34 39 37 41 44
58 58 58 59 60 60 59 58 58 57 57 57 57 57 56 56 56 56 55 53 52 51 50 48 47 45 45 47 46 46 45 43 41 40 41 42 39 32 29 31 30 32 35
58 58 58 58 60 60 59 58 58 58 58 57 57 57 57 57 57 56 55 54 52 52 51 48 48 45 45 46 45 45 43 44 44 39 37 39 36 31 30 30 30 30 34
58 58 58 58 59 60 60 59 58 58 57 57 57 56 56 56 57 57 56 54 53 53 52 50 48 47 45 46 46 45 43 41 43 45 39 36 35 32 30 31 30 30 32
58 59 58 59 59 60 61 59 58 57 56 57 56 56 56 56 57 57 56 55 54 53 52 51 49 48 47 45 46 46 46 44 43 42 45 38 35 33 31 32 31 29 31
59 58 58 58 58 60 60 60 58 57 56 57 56 56 56 56 57 57 56 55 54 53 53 52 51 48 47 46 47 46 44 44 45 43 42 44 34 35 34 32 32 30 31
60 59 58 58 58 58 59 59 59 57 56 55 55 56 56 56 56 56 56 56 55 54 53 53 53 51 49 48 47 47 45 43 43 44 43 43 41 35 34 34 32 31 31
Lifted_Index
-2 -3 -4 -5 -5 -6 -6 -6 -6 -6 -5 -5 -5 -5 -5 -5 -5 -5 -5 -4 -4 -4 -3 -3 -3 -2 -1 -1 0 1 2 2 3 3 3 3 2 2 2 2 2 3 3
-3 -3 -4 -5 -5 -6 -6 -6 -6 -5 -5 -5 -5 -5 -5 -5 -5 -5 -4 -4 -4 -3 -3 -2 -2 -1 -1 -0 1 1 2 3 3 3 3 3 2 2 2 2 3 3 4
-3 -4 -4 -5 -5 -6 -6 -6 -5 -5 -4 -4 -4 -5 -5 -5 -5 -5 -4 -4 -4 -3 -2 -2 -1 -1 -0 0 1 2 2 3 3 3 3 3 3 3 3 3 3 4 4
-3 -4 -4 -5 -5 -6 -6 -5 -5 -4 -4 -4 -4 -4 -5 -5 -4 -4 -4 -4 -3 -3 -2 -1 -1 -0 0 1 2 2 2 3 3 4 4 4 3 3 4 4 4 4 5
-4 -4 -4 -5 -5 -5 -5 -4 -4 -4 -4 -4 -4 -4 -4 -4 -4 -3 -3 -3 -3 -2 -2 -1 -0 0 1 1 2 2 3 3 4 4 4 4 4 4 4 4 4 5 5
-4 -4 -4 -4 -4 -4 -4 -4 -4 -4 -4 -4 -3 -3 -3 -3 -3 -3 -3 -3 -3 -2 -1 -0 0 1 1 1 2 2 3 4 4 4 4 4 4 4 4 4 4 5 5
-4 -4 -4 -4 -4 -4 -4 -4 -4 -3 -3 -3 -4 -3 -3 -3 -3 -2 -2 -3 -3 -2 -1 -0 1 1 1 1 2 2 3 4 4 4 4 4 3 3 4 4 4 5 5
-3 -3 -3 -3 -3 -3 -3 -3 -3 -3 -3 -3 -4 -4 -3 -3 -2 -2 -2 -3 -2 -2 -1 0 1 1 1 1 2 2 3 3 4 4 4 4 3 3 4 4 5 5 6
-3 -3 -3 -3 -2 -2 -2 -2 -3 -3 -3 -3 -3 -3 -3 -3 -2 -2 -2 -2 -2 -2 -1 0 0 1 1 1 1 2 3 3 3 4 4 3 3 4 4 5 5 6 6
-2 -2 -2 -2 -2 -2 -2 -2 -2 -2 -3 -3 -2 -2 -2 -2 -2 -2 -2 -2 -2 -2 -1 -0 0 0 0 1 1 2 3 3 3 3 3 3 3 4 4 5 5 6 6
-2 -2 -2 -2 -2 -2 -2 -2 -2 -2 -2 -2 -2 -2 -2 -2 -2 -2 -1 -1 -1 -2 -1 -0 0 1 1 1 1 2 3 3 3 3 3 3 3 4 5 5 6 6 6
-1 -2 -2 -2 -2 -2 -2 -2 -2 -1 -1 -1 -1 -1 -1 -1 -1 -1 -0 0 -0 -1 -1 0 1 2 2 2 2 3 3 3 3 3 3 3 3 4 5 5 6 6 6
-1 -1 -1 -1 -1 -2 -2 -2 -1 -1 -0 -0 -1 -1 -1 -0 0 1 1 2 1 0 0 1 2 3 3 3 3 3 3 3 3 3 3 3 4 4 5 5 6 6 6
-1 -1 -1 -1 -1 -1 -2 -1 -1 -0 0 0 -0 -0 -0 0 1 2 2 3 2 2 2 2 3 4 4 3 3 3 3 3 4 4 4 4 4 4 5 5 6 6 7
-1 -1 -1 -1 -0 -1 -1 -1 -0 0 1 1 0 0 0 1 2 2 3 3 3 3 3 3 4 4 4 4 3 3 3 3 4 4 5 4 4 5 5 6 6 7 7
-1 -1 -1 -0 0 0 0 0 0 1 1 2 1 1 1 2 2 2 3 3 3 4 4 4 4 4 5 5 4 4 4 4 4 5 6 6 6 6 6 7 7 8 8
-1 -1 -1 -0 0 1 1 1 1 1 2 2 2 2 2 2 2 2 3 3 4 5 5 5 5 5 6 6 5 5 5 6 6 7 7 7 7 7 8 8 9 9 9
-1 -1 -1 -0 0 1 1 1 1 1 2 2 2 2 2 2 2 2 3 3 4 5 6 6 6 6 6 7 6 6 7 8 9 9 9 10 10 10 10 11 11 11 11
-1 -1 -1 -0 0 1 1 1 1 1 1 2 2 2 2 2 2 3 3 3 4 5 6 6 6 7 7 7 7 8 8 9 9 9 10 11 12 12 12 13 13 13 13
-1 -1 -0 -0 0 1 1 1 1 1 1 1 1 1 1 2 2 2 3 3 4 4 5 6 7 7 8 8 8 8 9 9 9 9 10 11 12 13 14 14 14 14 14
-1 -0 -0 0 0 1 1 1 1 1 1 1 1 1 1 2 2 2 2 3 3 4 5 6 7 7 7 8 8 8 8 8 8 9 9 10 11 12 13 14 14 14 14
-1 -0 -0 0 0 0 1 1 1 1 1 1 1 1 2 2 2 2 2 3 3 4 5 6 6 7 7 7 8 8 8 8 8 8 9 9 10 10 11 12 12 13 13
-1 -1 -0 0 0 0 0 0 0 1 1 1 1 2 2 2 2 2 2 3 3 4 5 6 6 6 6 7 7 7 7 7 7 8 8 8 9 9 10 10 11 11 12
-1 -1 -1 -0 0 0 -0 -0 0 0 1 1 2 2 2 2 2 2 2 3 3 4 4 5 5 6 6 6 7 7 7 7 7 7 7 7 8 8 8 9 9 10 10
-2 -1 -1 -0 0 0 0 -0 -0 0 1 1 2 2 2 2 2 2 3 3 3 3 4 4 5 5 5 6 6 7 7 7 7 7 6 7 7 7 7 8 8 9 10
-2 -1 -1 0 0 0 0 0 -0 0 1 1 2 2 2 2 2 2 3 3 3 3 4 4 5 5 5 5 6 6 7 7 7 7 6 6 6 6 7 8 8 9 10